Weather History for KLWC - December, 2011

Change the Weather History Date:

Sunday, December 18, 2011

  Actual Average Record
Temperature  
Mean Temperature 41 °F 31 °F  
Max Temperature 59 °F 41 °F 67 °F (2013)
Min Temperature 23 °F 21 °F 7 °F (1996)
Degree Days  
Heating Degree Days 24 34  
Month to date heating degree days 574  
Since 1 July heating degree days 1582  
Cooling Degree Days 0 0  
Month to date cooling degree days 0  
Year to date cooling degree days 1371  
Moisture  
Dew Point 31 °F    
Average Humidity 67    
Maximum Humidity 92    
Minimum Humidity 42    
Precipitation  
Precipitation 0.00 in 0.05 in 0.08 in (2014)
Month to date precipitation 0.81  
Year to date precipitation 37.89  
Sea Level Pressure  
Sea Level Pressure 30.10 in    
Wind  
Wind Speed 6 mph (South)    
Max Wind Speed 18 mph    
Max Gust Speed 21 mph    
Visibility 10 miles    
Events      
T = Trace of Precipitation, MM = Missing Value Source: NWS Daily Summary

Daily Weather History Graph

Daily Weather History Graph

Search for Another Location

Airport or City:

Trip Planner

Search our weather history database for the weather conditions in past years. The results will help you decide how hot, cold, wet, or windy it might be!

Date:

Astronomy

Dec. 18, 2011 Rise Set
Actual Time 7:34 AM CST 5:00 PM CST
Civil Twilight 7:04 AM CST 5:30 PM CST
Nautical Twilight 6:30 AM CST 6:04 PM CST
Astronomical Twilight 5:58 AM CST 6:36 PM CST
Moon 12:38 AM CST (12/18) 12:24 PM CST (12/18)
Length of Visible Light 10h 26m
Length of Day
9h 26m
Last Quarter, 42% of the Moon is Illuminated
Dec 18
Last Quarter
Dec 24
New
Jan 1
First Quarter
Jan 9
Full
Jan 16
Last Quarter

Hourly Weather History & Observations

Time (CST) Temp. Windchill Dew Point Humidity Pressure Visibility Wind Dir Wind Speed Gust Speed Precip Events Conditions
12:52 AM 24.1 °F 19.7 °F 21.0 °F 88% 30.31 in 10.0 mi SW 3.5 mph - N/A   Clear
1:52 AM 23.0 °F - 19.9 °F 88% 30.30 in 10.0 mi Calm Calm - N/A   Clear
3:52 AM 25.0 °F - 21.9 °F 88% 30.27 in 10.0 mi Calm Calm - N/A   Clear
4:52 AM 24.1 °F 19.7 °F 21.9 °F 91% 30.27 in 10.0 mi SSE 3.5 mph - N/A   Clear
6:52 AM 28.0 °F - 23.0 °F 81% 30.25 in 10.0 mi Calm Calm - N/A   Clear
7:52 AM 27.0 °F 21.6 °F 25.0 °F 92% 30.25 in 9.0 mi SE 4.6 mph - N/A   Clear
9:52 AM 39.0 °F 35.7 °F 33.1 °F 79% 30.21 in 10.0 mi SE 4.6 mph - N/A   Clear
10:52 AM 50.0 °F - 35.1 °F 57% 30.18 in 10.0 mi SSW 10.4 mph - N/A   Clear
11:52 AM 53.1 °F - 36.0 °F 52% 30.13 in 10.0 mi South 10.4 mph - N/A   Clear
12:52 PM 53.1 °F - 36.0 °F 52% 30.09 in 10.0 mi South 11.5 mph - N/A   Partly Cloudy
2:52 PM 59.0 °F - 36.0 °F 42% 30.00 in 10.0 mi South 11.5 mph - N/A   Partly Cloudy
3:52 PM 55.9 °F - 36.0 °F 47% 29.99 in 10.0 mi South 15.0 mph 20.7 mph N/A   Overcast
4:52 PM 54.0 °F - 36.0 °F 51% 29.98 in 10.0 mi South 9.2 mph - N/A   Overcast
5:52 PM 52.0 °F - 36.0 °F 54% 29.97 in 10.0 mi South 6.9 mph - N/A   Mostly Cloudy
7:52 PM 48.9 °F - 35.1 °F 59% 29.97 in 10.0 mi South 10.4 mph - N/A   Partly Cloudy
8:52 PM 48.0 °F - 36.0 °F 63% 29.96 in 10.0 mi South 11.5 mph - N/A   Clear
9:52 PM 46.9 °F - 37.0 °F 68% 29.94 in 10.0 mi South 12.7 mph - N/A   Clear
10:52 PM 48.0 °F - 36.0 °F 63% 29.93 in 10.0 mi South 18.4 mph - N/A   Clear
11:52 PM 46.9 °F - 36.0 °F 66% 29.92 in 10.0 mi South 15.0 mph - N/A   Clear